Location: Asheville, NC
(35.6000°N, 82.5500°W)
Time: 06:03:44
(UTC-04:00)

Iridium 28 - Pass Details

Date: 09 January 2018
Orbit: 771 x 775 km, 86.4° (Epoch: 22 July)

Event Time Altitude Azimuth Distance (km) Brightness Sun altitude
Rises 19:42:09 0° 332° (NNW) 3,254 9.0 -25.3°
Reaches altitude 10° 19:46:23 10° 299° (WNW) 2,321 8.6 -26.2°
Maximum altitude 19:47:49 11° 282° (WNW) 2,239 8.8 -26.5°
Drops below altitude 10° 19:49:16 10° 266° (W) 2,318 9.0 -26.7°
Sets 19:53:30 0° 232° (SW) 3,239 9.6 -27.6°
